Regional Weather Roundup
Issued by NWS

Home | Current Version | Previous Version | Text Only | Print | Product List | Glossary Off
Versions: 1 2 3 4 5 6 7 8 9 10 11 12 13 14 15 16 17 18 19 20 21 22 23 24 25 26 27 28 29 30 31 32 33 34 35 36 37 38 39 40 41 42 43 44 45 46 47 48 49 50

000
ASUS44 KMEG 091410
RWRTN
TENNESSEE HOURLY STATE WEATHER ROUNDUP
NATIONAL WEATHER SERVICE MEMPHIS TN
800 AM CST FRI DEC 09 2016

TNZ002-004-019-021-049-052-054-088>092-091500-
WEST TENNESSEE

CITY           SKY/WX    TMP DP  RH WIND       PRES   REMARKS
MEMPHIS INTL   SUNNY     26  16  65 N8        30.66R WCI  18
NWS MEMPHIS      N/A     23 N/A N/A MISG        N/A
JACKSON        SUNNY     24  16  71 N7        30.65R WCI  16
DYERSBURG      CLEAR     23  16  74 N3        30.65R
UNION CITY     CLEAR     19  16  86 NW5       30.63S WCI  13
PARIS          SUNNY     18  12  79 CALM      30.62R
HUNTINGDON     SUNNY     23  16  74 NW5       30.62R WCI  17
LEXINGTON      SUNNY     21  14  73 N7        30.61R WCI  13
$$

TNZ008-025-027-028-033-062-065-066-091500-
NORTH MIDDLE TENNESSEE

CITY           SKY/WX    TMP DP  RH WIND       PRES   REMARKS
NASHVILLE      PTSUNNY   27  14  58 N8        30.60R WCI  19
PORTLAND       CLOUDY    25  16  68 NE8       30.58R WCI  16
CLARKSVILLE    CLOUDY    24  16  71 NW6       30.61R WCI  17
SMYRNA         CLOUDY    27  17  66 NE8       30.61R WCI  19
GALLATIN       CLOUDY    27  16  63 NW9       30.63R WCI  17
CROSSVILLE     CLOUDY    21  13  71 N8        30.47R WCI  11
$$

TNZ061-075-076-078-094-096-097-091500-
SOUTH MIDDLE TENNESSEE

CITY           SKY/WX    TMP DP  RH WIND       PRES   REMARKS
FAYETTEVILLE   CLOUDY    23  18  80 N8        30.56R WCI  14
TULLAHOMA      CLOUDY    21  14  73 N7        30.55R WCI  13
WINCHESTER     CLOUDY    23  16  74 N7        30.56R WCI  15
MCMINNVILLE    CLOUDY    25  16  68 N7          N/A  WCI  17
COLUMBIA       PTSUNNY   21  19  93 CALM      30.58R
SHELBYVILLE    CLOUDY    27  19  74 N7        30.59R WCI  19
$$

TNZ017-018-042-046-047-091500-
NORTHEAST TENNESSEE

CITY           SKY/WX    TMP DP  RH WIND       PRES   REMARKS
TRI CITIES     CLOUDY    25  14  63 NW8       30.45R WCI  16
ELIZABETHTON   CLOUDY    27  16  63 NW7G13    30.43R WCI  19
$$

TNZ012-013-036-069-073-074-091500-
CENTRAL EAST TENNESSEE

CITY           SKY/WX    TMP DP  RH WIND       PRES   REMARKS
KNOXVILLE      MOSUNNY   26  15  63 NW3       30.52R
OAK RIDGE      CLOUDY    27  13  55 VRB5      30.54R WCI  22
DOWNTOWN KNOXV CLOUDY    28  18  64 CALM      30.54R
GATLINBURG     CLOUDY    25  16  68 W3        30.50R
MORRISTOWN     CLOUDY    25  16  68 N6        30.48R WCI  18
JACKSBORO      CLOUDY    25  14  63 VRB5      30.55R WCI  19
$$

TNZ083-085-099-091500-
SOUTHEAST TENNESSEE

CITY           SKY/WX    TMP DP  RH WIND       PRES   REMARKS
CHATTANOOGA    MOSUNNY   27  15  61 NW15      30.55R WCI  15
$$

SKY/WX REPORTED AS FAIR MEANS FEW OR NO CLOUDS BELOW
12 THOUSAND FEET.




USA.gov is the U.S. government's official web portal to all federal, state and local government web resources and services.